Volver al catálogo

PRAETORIAN SDA_602

ActivoMilitarPO
NORAD 65565·PAYLOAD·🇺🇸 United States

Lanzado Sep 10, 2025 desde Vandenberg Space Force Base

Loading…

Próximos Pases (próximas 24 horas)

TLE

ActualizadoSource: Space-Track

Época: Sep 14, 2026, 12:40 UTC

1 65565U 25203A   26257.52824103  .00000054  00000-0  37822-4 0  9991
2 65565  81.3003 288.0730 0005200 322.5353  37.5440 13.83892898 51055

Sigue PRAETORIAN SDA_602 en tiempo real con AllMySat

Download on the App Store